This is the latest recevied weather packets stored in our database for station/object KD4EG. If no packets are shown the sender has not sent any weather packets the latest 10 day(s).
| Time | Temp. | Humidity | Pressure | Rain* | Wind** | Luminosity | Snow |
|---|---|---|---|---|---|---|---|
| 1777416427 | 20.56° C | 74% | 1017 hPa | 0 mm | - | 45 W/m² | - |
| 1777416122 | 21.67° C | 72% | 1017.4 hPa | 0 mm | - | 51 W/m² | - |
| 1777415816 | 21.67° C | 71% | 1017.1 hPa | 0 mm | - | 111 W/m² | - |
| 1777415513 | 21.67° C | 72% | 1017.1 hPa | 0 mm | - | 128 W/m² | - |
| 1777415209 | 22.22° C | 70% | 1017.2 hPa | 0 mm | - | 148 W/m² | - |
| 1777414904 | 22.78° C | 70% | 1017.3 hPa | 0 mm | - | 157 W/m² | - |
| 1777414603 | 22.22° C | 72% | 1017.7 hPa | 0 mm | - | 194 W/m² | - |
| 1777414298 | 21.67° C | 73% | 1017.5 hPa | 0 mm | - | 204 W/m² | - |
| 1777413993 | 22.22° C | 71% | 1017.4 hPa | 0 mm | - | 219 W/m² | - |
| 1777413688 | 22.78° C | 70% | 1017.6 hPa | 0 mm | - | 245 W/m² | - |
| 1777413385 | 22.22° C | 71% | 1017.3 hPa | 0 mm | - | 240 W/m² | - |
| 1777413081 | 22.78° C | 71% | 1017.5 hPa | 0 mm | - | 111 W/m² | - |
| 1777412776 | 22.22° C | 70% | 1017.7 hPa | 0 mm | - | 294 W/m² | - |
| 1777412475 | 22.78° C | 70% | 1017.7 hPa | 0 mm | - | 349 W/m² | - |
| 1777412172 | 22.78° C | 70% | 1017.4 hPa | 0 mm | - | 317 W/m² | - |
| 1777411869 | 22.78° C | 70% | 1017.7 hPa | 0 mm | - | 345 W/m² | - |
| 1777411568 | 23.33° C | 69% | 1017.6 hPa | 0 mm | - | 128 W/m² | - |
| 1777411263 | 22.22° C | 71% | 1017.5 hPa | 0 mm | - | 406 W/m² | - |
| 1777410957 | 21.67° C | 72% | 1017.1 hPa | 0 mm | - | 451 W/m² | - |
| 1777410657 | 21.67° C | 72% | 1017.3 hPa | 0 mm | - | 200 W/m² | - |
| 1777410352 | 21.67° C | 72% | 1017.4 hPa | 0 mm | - | 140 W/m² | - |
| 1777410046 | 22.22° C | 71% | 1016.9 hPa | 0 mm | - | 127 W/m² | - |
| 1777409746 | 22.22° C | 70% | 1017.1 hPa | 0 mm | - | 430 W/m² | - |
| 1777409442 | 22.22° C | 72% | 1017.2 hPa | 0 mm | - | 409 W/m² | - |
| 1777409138 | 22.78° C | 71% | 1017.1 hPa | 0 mm | - | 230 W/m² | - |
* Rain latest hour (hover to see other rain measurements)
** Current wind speed in m/s (hover to see current wind gust speed)